Preview of NWS' New Version of Forecast
This preview is not operational and should not be used for support decisions.

Regional Weather Roundup (RWR)

Issued by National Weather Service (NWS)

                            
000
ASUS46 KPQR 202310
RWROR 

OREGON REGIONAL WEATHER ROUNDUP
NATIONAL WEATHER SERVICE PORTLAND OR
400 PM PDT TUE AUG 20 2019

NOTE: "FAIR" INDICATES FEW OR NO CLOUDS BELOW 12,000 FEET WITH
NO SIGNIFICANT WEATHER AND/OR OBSTRUCTIONS TO VISIBILITY.

ORZ001>013-210000-
NORTHWEST OREGON

  
CITY           SKY/WX    TMP DP  RH WIND       PRES   REMARKS
ASTORIA        CLOUDY    67  58  72 SW15G23   29.96S                  
TILLAMOOK      CLOUDY    70  55  60 SW10      30.01R                  
NEWPORT        CLOUDY    66  57  72 SW14G20   30.04S                  
FLORENCE       CLOUDY    64  55  72 SW5       30.02S                  
PORTLAND       PTSUNNY   85  55  35 S12       29.89F                  
VANCOUVER WA   CLOUDY    84  55  36 VRB6      29.89F                  
SCAPPOOSE      CLOUDY    82  58  43 NE3       29.89F                  
HILLSBORO      CLOUDY    82  56  40 S9        29.91S                  
AURORA         CLOUDY    83  58  42 VRB7      29.92F                  
MCMINNVILLE    CLOUDY    81  58  45 SW12      29.91S                  
SALEM          PTSUNNY   82  55  39 SW9       29.91S                  
CORVALLIS      PTSUNNY   77  59  53 NW17      29.95R                  
EUGENE         PTSUNNY   82  54  37 W13       29.95R                  
CRESWELL       SUNNY     86  54  32 W15       29.92S                  
$$

ORZ021-028-210000-
SOUTHWEST OREGON

  
CITY           SKY/WX    TMP DP  RH WIND       PRES   REMARKS
NORTH BEND     CLOUDY    67  56  67 SW13      30.05R                  
BROOKINGS      CLOUDY    64  56  75 SW5       30.08R                  
ROSEBURG       CLOUDY    86  57  37 N10G17    29.92S                  
SEXTON SUMMIT  CLOUDY    76  52  43 VRB3      30.08S                  
GRANTS PASS    FAIR      88  50  27 VRB7G15   29.94S                  
MEDFORD        PTSUNNY   91  51  25 NW12      29.90F                  
$$

ORZ014>016-041-210000-
COLUMBIA GORGE

  
CITY           SKY/WX    TMP DP  RH WIND       PRES   REMARKS
TROUTDALE      PTSUNNY   85  56  37 W3        29.89F                  
THE DALLES     PTSUNNY   93  56  28 NW9       29.82F HX  91           
$$

ORZ029>031-041-044-049-050-061>064-502-503-505>511-210000-
EASTERN OREGON

  
CITY           SKY/WX    TMP DP  RH WIND       PRES   REMARKS
MADRAS         MOSUNNY   90  46  22 NW7       29.93F                  
REDMOND        MOSUNNY   92  43  18 VRB5      29.94S                  
BEND           MOSUNNY   91  41  17 VRB7G15   29.95F                  
PRINEVILLE     MOSUNNY   90  43  19 VRB5G15   29.94F                  
KLAMATH FALLS  SUNNY     85  35  16 S8        30.05F                  
LAKEVIEW       SUNNY     86  34  15 SE9       30.09F                  
HERMISTON      MOSUNNY   94  51  23 CALM      29.83F HX  91           
PENDLETON      MOSUNNY   95  41  15 N13G20    29.86F HX  91           
JOHN DAY       MOSUNNY   96  37  12 NW8       29.96F HX  91           
MEACHAM        MOSUNNY   84  43  23 VRB3      30.01F                  
LA GRANDE      MOSUNNY   95  45  17 VRB5      29.90F HX  91           
BAKER CITY     SUNNY     98  46  17 NE8       29.93F HX  94           
BURNS          SUNNY     92  35  13 CALM      30.01F                  
ROME             N/A     97  27   8 VRB5      29.96F HX  91           
ONTARIO        SUNNY    100  47  16 S3        29.87F HX  96           
$$